EW4453 Weather Reports


time (UTC)temp
C
wind
direction
speed
KPH
gust
KPH
rain 1hr
cm
rain 24hr
cm
rain mn
cm
humidity
%
barometer
mb
20260507174609 31 359 3.2 12.9 0.00 0.00 0.00 68 1015.0
20260507173059 31 29 6.4 14.5 0.00 0.00 0.00 66 1015.2
20260507171606 31 56 3.2 12.9 0.00 0.00 0.00 67 1015.4
20260507170000 31 66 3.2 16.1 0.00 0.00 0.00 67 1015.8
20260507164502 31 53 4.8 9.7 0.00 0.00 0.00 64 1016.0
20260507163003 32 20 4.8 16.1 0.00 0.00 0.00 64 1016.2
20260507161514 33 27 6.4 17.7 0.00 0.00 0.00 62 1016.3
20260507160015 33 63 4.8 14.5 0.00 0.00 0.00 60 1016.4
20260507154524 33 89 3.2 14.5 0.00 0.00 0.00 61 1016.5
20260507153024 33 164 3.2 14.5 0.00 0.00 0.00 59 1016.6
20260507151527 32 24 6.4 14.5 0.00 0.00 0.00 62 1016.6
20260507150040 32 83 4.8 17.7 0.00 0.00 0.00 59 1016.5
20260507144540 33 148 4.8 19.3 0.00 0.00 0.00 60 1016.6
20260507143045 32 141 3.2 9.7 0.00 0.00 0.00 62 1016.6
20260507141542 32 73 4.8 14.5 0.00 0.00 0.00 60 1016.7
20260507140048 32 66 6.4 22.5 0.00 0.00 0.00 63 1016.7
20260507134550 32 21 4.8 14.5 0.00 0.00 0.00 63 1016.7
20260507133048 31 177 4.8 14.5 0.00 0.00 0.00 64 1016.9
20260507131559 30 65 4.8 11.3 0.00 0.00 0.00 68 1016.9
20260507130106 30 58 4.8 11.3 0.00 0.00 0.00 69 1016.8
20260507124554 29 99 3.2 12.9 0.00 0.00 0.00 72 1016.8
20260507123054 28 54 8.0 17.7 0.00 0.00 0.00 74 1016.7
20260507121605 27 108 3.2 16.1 0.00 0.00 0.00 76 1016.7
20260507120011 26 57 1.6 14.5 0.00 0.00 0.00 77 1016.8
20260507114505 26 76 1.6 14.5 0.00 0.00 0.00 80 1016.7
20260507113006 26 70 3.2 9.7 0.00 0.00 0.00 82 1016.7
20260507111516 25 40 1.6 6.4 0.00 0.00 0.00 84 1016.6
20260507110018 24 143 1.6 6.4 0.00 0.00 0.00 85 1016.5
20260507104530 24 18 0.0 4.8 0.00 0.00 0.00 86 1016.6
20260507103032 23 37 1.6 12.9 0.00 0.00 0.00 85 1016.4
20260507101532 23 109 0.0 3.2 0.00 0.00 0.00 85 1016.3
20260507100042 23 45 0.0 8.0 0.00 0.00 0.00 84 1016.2
20260507094544 23 41 0.0 3.2 0.00 0.00 0.00 84 1016.0
20260507093053 23 58 1.6 4.8 0.00 0.00 0.00 83 1015.8
20260507091551 24 90 0.0 4.8 0.00 0.00 0.00 84 1015.8
20260507090047 24 91 0.0 6.4 0.00 0.00 0.00 84 1015.7
20260507084551 24 60 1.6 9.7 0.00 0.00 0.00 84 1015.7
20260507083050 24 57 1.6 4.8 0.00 0.00 0.00 84 1015.7
20260507081548 24 64 0.0 8.0 0.00 0.00 0.00 83 1015.7
20260507080048 24 170 0.0 4.8 0.00 0.00 0.00 83 1015.6
20260507074600 24 152 1.6 9.7 0.00 0.00 0.00 84 1015.6
20260507073047 25 73 1.6 8.0 0.00 0.00 0.00 84 1015.6
20260507071549 25 25 1.6 6.4 0.00 0.00 0.00 83 1015.8
20260507070051 25 59 1.6 8.0 0.00 0.00 0.00 83 1015.7
20260507064553 25 43 1.6 6.4 0.00 0.00 0.00 82 1015.8
20260507063054 25 60 3.2 9.7 0.00 0.00 0.00 83 1015.8
20260507061555 25 40 1.6 8.0 0.00 0.00 0.00 84 1016.0
20260507060052 25 56 3.2 9.7 0.00 0.00 0.00 84 1016.3
20260507054639 25 64 3.2 11.3 0.00 0.00 0.00 84 1016.5
20260507053105 25 74 1.6 8.0 0.00 0.00 0.00 84 1016.6
20260507051501 25 23 1.6 9.7 0.00 0.00 0.00 83 1016.8
20260507050011 25 136 1.6 12.9 0.00 0.00 0.00 83 1017.0
20260507044506 25 38 1.6 9.7 0.00 0.00 0.00 82 1017.2
20260507043017 25 12 1.6 12.9 0.00 0.00 0.00 82 1017.2
20260507041519 25 127 1.6 9.7 0.00 0.00 0.00 82 1017.4
20260507040022 25 40 0.0 16.1 0.00 0.00 0.00 81 1017.5
20260507034533 25 56 3.2 9.7 0.00 0.00 0.00 82 1017.5
20260507033034 25 43 3.2 6.4 0.00 0.00 0.00 80 1017.7
20260507031601 25 84 3.2 12.9 0.00 0.00 0.00 79 1017.9
20260507030053 25 107 3.2 14.5 0.00 0.00 0.00 79 1018.0
20260507024548 25 67 1.6 9.7 0.00 0.00 0.00 79 1017.9
20260507023101 25 359 3.2 16.1 0.00 0.00 0.00 78 1017.9
20260507021549 25 50 3.2 9.7 0.00 0.00 0.00 79 1017.9
20260507020055 25 33 3.2 14.5 0.00 0.00 0.00 79 1017.8
20260507014602 25 109 1.6 6.4 0.00 0.00 0.00 80 1017.7
20260507013055 26 129 0.0 4.8 0.00 0.00 0.00 80 1017.6
20260507011557 26 35 0.0 12.9 0.00 0.00 0.00 80 1017.5
20260507010105 26 158 3.2 16.1 0.00 0.00 0.00 80 1017.3
20260507004558 26 162 6.4 12.9 0.00 0.00 0.00 80 1017.1
20260507003100 26 77 0.0 6.4 0.00 0.00 0.00 80 1017.0
20260507001606 26 16 0.0 9.7 0.00 0.00 0.00 81 1016.9
20260507000101 26 70 6.4 16.1 0.00 0.00 0.00 81 1016.9
20260506234604 26 54 3.2 11.3 0.00 0.00 0.00 81 1016.7
20260506233002 26 164 1.6 12.9 0.00 0.00 0.00 80 1016.4
20260506231503 26 60 1.6 9.7 0.00 0.00 0.00 80 1016.2
20260506230014 26 64 4.8 9.7 0.00 0.00 0.00 79 1016.2
20260506224513 26 59 3.2 16.1 0.00 0.00 0.00 79 1016.1
20260506223024 26 50 3.2 14.5 0.00 0.00 0.00 78 1015.8
20260506221526 26 53 3.2 16.1 0.00 0.00 0.00 76 1015.6
20260506220028 27 71 6.4 17.7 0.00 0.00 0.00 75 1015.5
20260506214539 27 163 4.8 17.7 0.00 0.03 0.00 74 1015.4
20260506213044 27 52 8.0 17.7 0.00 0.03 0.00 73 1015.3
20260506211552 28 162 3.2 20.9 0.00 0.03 0.00 73 1015.1
20260506210057 28 58 4.8 19.3 0.00 0.03 0.00 71 1015.0
20260506204555 28 68 8.0 16.1 0.00 0.03 0.00 72 1015.0
20260506203055 28 359 6.4 16.1 0.00 0.03 0.00 73 1015.0
20260506201557 28 137 3.2 16.1 0.00 0.03 0.00 75 1015.1
20260506200058 28 73 8.0 22.5 0.00 0.03 0.00 76 1015.1
20260506194634 29 68 6.4 16.1 0.00 0.03 0.00 75 1015.3
20260506193106 29 66 6.4 17.7 0.00 0.03 0.00 74 1015.5
20260506191602 29 64 4.8 11.3 0.00 0.03 0.00 76 1015.6
20260506190000 30 75 9.7 19.3 0.00 0.03 0.00 74 1015.7
20260506184501 30 71 4.8 17.7 0.00 0.03 0.00 74 1015.8
20260506183003 30 16 6.4 19.3 0.00 0.03 0.00 74 1016.0
20260506181505 29 78 9.7 20.9 0.00 0.03 0.00 73 1016.2
20260506180006 29 359 6.4 20.9 0.00 0.03 0.00 72 1016.3